Location: The Stocker AstroScience Center
(25.7579°N, 80.3725°W)
Time: 20:22:09

ISS - Pass Details

Date: 24 February 2018
Orbit: 403 x 406 km, 51.6° (Epoch: 24 March)

Event Time Altitude Azimuth Distance (km) Brightness Sun altitude
Rises 14:41:34 0° 326° (NW) 2,313 -0.1 43.3°
Reaches altitude 10° 14:43:43 10° 333° (NNW) 1,452 -1.1 43.0°
Maximum altitude 14:46:50 43° 46° (NE) 577 -3.1 42.5°
Drops below altitude 10° 14:49:56 10° 120° (ESE) 1,446 -1.1 42.0°
Sets 14:52:09 0° 127° (SE) 2,338 -0.1 41.6°
